Sterling, IL

2:25 AM CST on November 17, 2019 (GMT -0600)
Whiteside County-Bittorf

Weather History for KSQI - July, 2019

Change the Weather History Date:

Wednesday, July 10, 2019

  Actual Average Record
Temperature  
Mean Temperature 82 °F -  
Max Temperature 91 °F 81 °F 91 °F (2011)
Min Temperature 72 °F 59 °F 46 °F (1997)
Cooling Degree Days 16    
Growing Degree Days 32 (Base 50)    
Moisture  
Dew Point 71 °F    
Average Humidity 75    
Maximum Humidity 97    
Minimum Humidity 46    
Precipitation  
Precipitation 0.00 in - - ()
Sea Level Pressure  
Sea Level Pressure 29.54 in    
Wind  
Wind Speed 6 mph (West)    
Max Wind Speed 18 mph    
Max Gust Speed 23 mph    
Visibility 9 miles    
Events      
Averages and records for this station are not official NWS values.
T = Trace of Precipitation, MM = Missing Value Source: NWS Daily Summary

Daily Weather History Graph

Daily Weather History Graph

Search for Another Location

Airport or City:

Astronomy

Jul. 10, 2019 Rise Set
Actual Time 5:33 AM CDT 8:34 PM CDT
Civil Twilight 4:59 AM CDT 9:08 PM CDT
Nautical Twilight 4:17 AM CDT 9:50 PM CDT
Astronomical Twilight 3:26 AM CDT 10:40 PM CDT
Moon 2:37 PM CDT (7/10) 1:17 AM CDT (7/10)
Length of Visible Light 16h 08m
Length of Day
15h 01m
Waxing Gibbous, 64% of the Moon is Illuminated
Jul 10
Waxing Gibbous
Jul 16
Full
Jul 24
Last Quarter
Jul 31
New
Aug 7
First Quarter

Hourly Weather History & Observations

Time (CDT) Temp. Heat Index Dew Point Humidity Pressure Visibility Wind Dir Wind Speed Gust Speed Precip Events Conditions
12:56 AM 75.9 °F - 73.9 °F 94% 29.52 in 10.0 mi Calm Calm - N/A   Overcast
1:56 AM 75.9 °F - 73.9 °F 94% 29.52 in 10.0 mi Variable 3.5 mph - N/A   Overcast
2:56 AM 75.9 °F - 73.9 °F 94% 29.51 in 9.0 mi Calm Calm - N/A   Overcast
3:56 AM 75.0 °F - 73.0 °F 94% 29.52 in 8.0 mi Calm Calm - N/A   Overcast
4:56 AM 73.9 °F - 73.0 °F 97% 29.52 in 6.0 mi Calm Calm - N/A   Overcast
5:56 AM 73.9 °F - 73.0 °F 97% 29.51 in 3.0 mi Variable 3.5 mph - N/A   Overcast
6:56 AM 75.9 °F - 75.0 °F 97% 29.53 in 5.0 mi WSW 5.8 mph - N/A   Overcast
7:56 AM 79.0 °F - 75.9 °F 90% 29.54 in 10.0 mi WSW 6.9 mph - N/A   Overcast
8:56 AM 82.9 °F 90.8 °F 75.9 °F 79% 29.55 in 10.0 mi West 8.1 mph - N/A   Overcast
9:56 AM 84.9 °F 95.3 °F 77.0 °F 77% 29.55 in 10.0 mi West 9.2 mph - N/A   Mostly Cloudy
10:06 AM 84.2 °F 96.1 °F 78.8 °F 84% 29.94 in 10.0 mi West 12.7 mph - N/A   Scattered Clouds
10:56 AM 87.1 °F 98.8 °F 77.0 °F 72% 29.54 in 10.0 mi West 10.4 mph - N/A   Clear
11:56 AM 88.0 °F 97.5 °F 75.0 °F 65% 29.53 in 10.0 mi West 11.5 mph - N/A   Clear
12:56 PM 89.1 °F 98.0 °F 73.9 °F 61% 29.52 in 10.0 mi West 12.7 mph - N/A   Clear
1:56 PM 90.0 °F 96.9 °F 72.0 °F 55% 29.51 in 10.0 mi West 11.5 mph - N/A   Clear
2:56 PM 90.0 °F 96.4 °F 71.1 °F 54% 29.50 in 10.0 mi West 12.7 mph 20.7 mph N/A   Partly Cloudy
3:56 PM 89.1 °F 94.1 °F 70.0 °F 53% 29.50 in 10.0 mi West 15.0 mph 23.0 mph N/A   Clear
4:56 PM 87.1 °F 88.3 °F 64.0 °F 46% 29.50 in 10.0 mi West 18.4 mph - N/A   Clear
5:56 PM 86.0 °F 87.3 °F 64.0 °F 48% 29.50 in 10.0 mi West 12.7 mph - N/A   Clear
6:56 PM 82.9 °F 84.0 °F 63.0 °F 51% 29.50 in 10.0 mi West 15.0 mph - N/A   Clear
7:56 PM 79.0 °F - 64.9 °F 62% 29.51 in 10.0 mi West 8.1 mph - N/A   Clear
8:56 PM 75.9 °F - 64.9 °F 69% 29.52 in 10.0 mi WNW 8.1 mph - N/A   Clear
9:56 PM 73.0 °F - 64.9 °F 76% 29.53 in 10.0 mi WSW 4.6 mph - N/A   Clear
10:56 PM 73.0 °F - 64.9 °F 76% 29.52 in 10.0 mi WSW 6.9 mph - N/A   Clear
11:56 PM 72.0 °F - 64.9 °F 78% 29.51 in 10.0 mi WSW 4.6 mph - N/A   Clear